This is the latest recevied weather packets stored in our database for station/object XQ6AK-15. If no packets are shown the sender has not sent any weather packets the latest 10 day(s).
| Time | Temp. | Humidity | Pressure | Rain* | Wind** | Luminosity | Snow |
|---|---|---|---|---|---|---|---|
| 1787689740 | 10.56° C | 99% | 998.6 hPa | 3.05 mm | - | 11 W/m² | - |
| 1787689435 | 10.56° C | 99% | 998.6 hPa | 1.27 mm | - | 21 W/m² | - |
| 1787689135 | 10.56° C | 99% | 998.5 hPa | 1.78 mm | - | 21 W/m² | - |
| 1787688831 | 10.56° C | 99% | 998.6 hPa | 1.78 mm | - | 25 W/m² | - |
| 1787688526 | 10.56° C | 99% | 998.5 hPa | 0 mm | - | 32 W/m² | - |
| 1787688226 | 10.56° C | 99% | 998.4 hPa | 1.27 mm | - | 18 W/m² | - |
| 1787687922 | 10.56° C | 99% | 998.3 hPa | 1.27 mm | - | 37 W/m² | - |
| 1787687617 | 10.56° C | 99% | 998.4 hPa | 1.78 mm | - | 23 W/m² | - |
| 1787687312 | 10.56° C | 99% | 998.3 hPa | 1.78 mm | - | 23 W/m² | - |
| 1787687008 | 10.56° C | 99% | 998.1 hPa | 0 mm | - | 16 W/m² | - |
| 1787686699 | 10.56° C | 99% | 998.1 hPa | 0 mm | - | 60 W/m² | - |
| 1787686399 | 10.56° C | 99% | 997.9 hPa | 0 mm | - | 65 W/m² | - |
| 1787686095 | 10.56° C | 99% | 998.1 hPa | 0 mm | - | 50 W/m² | - |
| 1787685789 | 10.56° C | 99% | 998.1 hPa | 0 mm | - | 68 W/m² | - |
| 1787685484 | 10.56° C | 99% | 998.3 hPa | 0 mm | - | 58 W/m² | - |
| 1787685179 | 10.56° C | 99% | 998.2 hPa | 0 mm | - | 63 W/m² | - |
| 1787684875 | 10.56° C | 99% | 998.1 hPa | 0 mm | - | 69 W/m² | - |
| 1787684574 | 10.56° C | 99% | 998.3 hPa | 0 mm | - | 95 W/m² | - |
| 1787684269 | 10.56° C | 99% | 998.2 hPa | 1.27 mm | - | 80 W/m² | - |
| 1787683966 | 10° C | 99% | 998.3 hPa | 0 mm | - | 91 W/m² | - |
| 1787683664 | 10.56° C | 99% | 998.3 hPa | 0 mm | - | 91 W/m² | - |
| 1787683359 | 10.56° C | 99% | 998.4 hPa | 1.78 mm | - | 113 W/m² | - |
| 1787683056 | 10° C | 99% | 998.4 hPa | 1.27 mm | - | 117 W/m² | - |
| 1787682752 | 10° C | 99% | 998.4 hPa | 3.05 mm | - | 71 W/m² | - |
| 1787682448 | 10° C | 99% | 998.5 hPa | 3.56 mm | - | 44 W/m² | - |
* Rain latest hour (hover to see other rain measurements)
** Current wind speed in m/s (hover to see current wind gust speed)